This is the latest recevied weather packets stored in our database for station/object WP3OF-2. If no packets are shown the sender has not sent any weather packets the latest 10 day(s).
| Time | Temp. | Humidity | Pressure | Rain* | Wind** | Luminosity | Snow |
|---|---|---|---|---|---|---|---|
| 1788553718 | 25° C | 67% | 1024.9 hPa | 0 mm | - | 173 W/m² | - |
| 1788553415 | 25.56° C | 63% | 1024.9 hPa | 0 mm | - | 341 W/m² | - |
| 1788553110 | 25.56° C | 61% | 1024.9 hPa | 0 mm | - | 439 W/m² | - |
| 1788552810 | 25.56° C | 63% | 1024.9 hPa | 0 mm | - | 451 W/m² | - |
| 1788552506 | 25.56° C | 65% | 1024.9 hPa | 0 mm | - | 265 W/m² | - |
| 1788552204 | 25.56° C | 65% | 1024.5 hPa | 0 mm | - | 331 W/m² | - |
| 1788551899 | 25.56° C | 68% | 1024.9 hPa | 0 mm | - | 311 W/m² | - |
| 1788551597 | 25.56° C | 66% | 1024.9 hPa | 0 mm | - | 520 W/m² | - |
| 1788551324 | 25.56° C | 68% | 1024.9 hPa | 0 mm | - | 298 W/m² | - |
| 1788550992 | 25.56° C | 70% | 1024.9 hPa | 0 mm | - | 409 W/m² | - |
| 1788550687 | 25.56° C | 71% | 1024.9 hPa | 0 mm | - | 555 W/m² | - |
| 1788550382 | 25.56° C | 70% | 1024.9 hPa | 0 mm | - | 580 W/m² | - |
| 1788550077 | 25.56° C | 70% | 1024.9 hPa | 0 mm | - | 398 W/m² | - |
| 1788549773 | 25.56° C | 70% | 1024.9 hPa | 0 mm | - | 425 W/m² | - |
| 1788549469 | 25.56° C | 72% | 1024.9 hPa | 0 mm | - | 528 W/m² | - |
| 1788549166 | 25.56° C | 74% | 1024.9 hPa | 0 mm | - | 196 W/m² | - |
| 1788548862 | 25.56° C | 74% | 1024.9 hPa | 0 mm | - | 243 W/m² | - |
| 1788548557 | 25.56° C | 74% | 1024.9 hPa | 0 mm | - | 632 W/m² | - |
| 1788548253 | 25° C | 79% | 1025.2 hPa | 0 mm | - | 338 W/m² | - |
| 1788547949 | 25.56° C | 79% | 1025.2 hPa | 0 mm | - | 261 W/m² | - |
| 1788547647 | 25.56° C | 79% | 1025.2 hPa | 0 mm | - | 353 W/m² | - |
| 1788547344 | 25.56° C | 78% | 1025.2 hPa | 0 mm | - | 183 W/m² | - |
| 1788547038 | 26.11° C | 78% | 1025.2 hPa | 0 mm | - | 474 W/m² | - |
| 1788546733 | 25.56° C | 81% | 1025.6 hPa | 0 mm | - | 719 W/m² | - |
| 1788546428 | 25.56° C | 80% | 1025.2 hPa | 0 mm | - | 705 W/m² | - |
* Rain latest hour (hover to see other rain measurements)
** Current wind speed in m/s (hover to see current wind gust speed)